Weather in Byngi

Russia / Sverdlovsk Oblast     57°32′12″N   60°17′29″E
temp.,
°C
wind,
m/s
gust,
m/s
humid.,
%
clouds,
%
prec.,
mm/h
press.,
hPa
HPBL,
m
5 august, thu
thu523:00+18sse279625 0.4 1012132
02:00+17ssw23965 0.0 101059
05:00+17e0091100 0.0 100911
08:00+21se018474 0.0 1009104
11:00+27sse245381 0.0 1008627
14:00+30sse233785 0.0 10071277
17:00+29w4541100 0.0 10071358
20:00+23wnw496920 0.0 1007436
6 august, fri
fri623:00+18nw41090100 0.1 1008472
02:00+16wnw5882100 0.0 1008616
05:00+16wnw4880100 0.0 1008748
08:00+15wnw4984100 0.1 1008619
11:00+17nw4775100 0.1 1010651
14:00+16nw2889100 0.3 1010392
17:00+17n487798 0.4 1011479
20:00+17nnw3969100 0.1 1012516
7 august, sat
sat723:00+14nw3986100 0.4 1012265
02:00+12nw38885 0.0 1012174
05:00+11wnw37870 0.0 1013136
08:00+15nw410630 0.0 1013596
11:00+19nw57470 0.0 10131286
14:00+21nw57420 0.0 10121850
17:00+19nw785625 0.0 10131143
20:00+16nw4867100 0.0 10151002
8 august, sun
sun823:00+12nw310780 0.0 1015425
02:00+11nw410870 0.0 1015484
05:00+9nw49890 0.0 1016354
08:00+12nw46740 0.0 1016417
11:00+18nw465411 0.0 1016910
14:00+22nnw464710 0.0 10161474
17:00+23nnw454750 0.0 10161719
20:00+19nw386623 0.0 1017324
9 august, mon
mon923:00+15nw3107877 0.0 1018279
02:00+11wnw249220 0.0 101966
05:00+10wnw22969 0.0 101936
08:00+14nw2376100 0.0 1019277
11:00+19nw235686 0.0 1019902
14:00+23nw463989 0.0 10181475
17:00+24nw463987 0.0 10181722
20:00+19nw3863100 0.0 1018228